Year,Month,Day,Hour,Minute,Value (Times are PST for temperature in C)
2018,04,27,00,00,10.80
2018,04,27,00,01,10.80
2018,04,27,00,02,10.80
2018,04,27,00,03,10.80
2018,04,27,00,04,10.80
2018,04,27,00,05,10.80
2018,04,27,00,06,10.70
2018,04,27,00,07,10.80
2018,04,27,00,08,10.70
2018,04,27,00,09,10.70
2018,04,27,00,10,10.70
2018,04,27,00,11,10.70
2018,04,27,00,12,10.70
2018,04,27,00,13,10.70
2018,04,27,00,14,10.70
2018,04,27,00,15,10.70
2018,04,27,00,16,10.70
2018,04,27,00,17,10.70
2018,04,27,00,18,10.70
2018,04,27,00,19,10.70
2018,04,27,00,20,10.60
2018,04,27,00,21,10.60
2018,04,27,00,22,10.60
2018,04,27,00,23,10.60
2018,04,27,00,24,10.60
2018,04,27,00,25,10.60
2018,04,27,00,26,10.60
2018,04,27,00,27,10.60
2018,04,27,00,28,10.50
2018,04,27,00,29,10.50
2018,04,27,00,30,10.40
2018,04,27,00,31,10.40
2018,04,27,00,32,10.40
2018,04,27,00,33,10.40
2018,04,27,00,34,10.40
2018,04,27,00,35,10.40
2018,04,27,00,36,10.40
2018,04,27,00,37,10.30
2018,04,27,00,38,10.30
2018,04,27,00,39,10.30
2018,04,27,00,40,10.30
2018,04,27,00,41,10.30
2018,04,27,00,42,10.30
2018,04,27,00,43,10.20
2018,04,27,00,44,10.20
2018,04,27,00,45,10.20
2018,04,27,00,46,10.20
2018,04,27,00,47,10.20
2018,04,27,00,48,10.20
2018,04,27,00,49,10.10
2018,04,27,00,50,10.10
2018,04,27,00,51,10.10
2018,04,27,00,52,10.10
2018,04,27,00,53,10.10
2018,04,27,00,54,10.10
2018,04,27,00,55,10.10
2018,04,27,00,56,10.10
2018,04,27,00,57,10.10
2018,04,27,00,58,10.10
2018,04,27,00,59,10.10
2018,04,27,01,00,10.10
2018,04,27,01,01,10.10
2018,04,27,01,02,10.10
2018,04,27,01,03,10.10
2018,04,27,01,04,10.10
2018,04,27,01,05,10.10
2018,04,27,01,06,10.10
2018,04,27,01,07,10.00
2018,04,27,01,08,10.00
2018,04,27,01,09,10.00
2018,04,27,01,10,10.00
2018,04,27,01,11,10.00
2018,04,27,01,12,9.90
2018,04,27,01,13,9.90
2018,04,27,01,14,9.90
2018,04,27,01,15,9.90
2018,04,27,01,16,9.90
2018,04,27,01,17,9.90
2018,04,27,01,18,9.80
2018,04,27,01,19,9.80
2018,04,27,01,20,9.80
2018,04,27,01,21,9.80
2018,04,27,01,22,9.80
2018,04,27,01,23,9.80
2018,04,27,01,24,9.80
2018,04,27,01,25,9.80
2018,04,27,01,26,9.80
2018,04,27,01,27,9.80
2018,04,27,01,28,9.80
2018,04,27,01,29,9.70
2018,04,27,01,30,9.70
2018,04,27,01,31,9.70
2018,04,27,01,32,9.70
2018,04,27,01,33,9.70
2018,04,27,01,34,9.70
2018,04,27,01,35,9.70
2018,04,27,01,36,9.70
2018,04,27,01,37,9.70
2018,04,27,01,38,9.70
2018,04,27,01,39,9.70
2018,04,27,01,40,9.70
2018,04,27,01,41,9.70
2018,04,27,01,42,9.70
2018,04,27,01,43,9.70
2018,04,27,01,44,9.70
2018,04,27,01,45,9.70
2018,04,27,01,46,9.70
2018,04,27,01,47,9.70
2018,04,27,01,48,9.70
2018,04,27,01,49,9.70
2018,04,27,01,50,9.70
2018,04,27,01,51,9.80
2018,04,27,01,52,9.80
2018,04,27,01,53,9.80
2018,04,27,01,54,9.70
2018,04,27,01,55,9.70
2018,04,27,01,56,9.70
2018,04,27,01,57,9.70
2018,04,27,01,58,9.70
2018,04,27,01,59,9.70
2018,04,27,02,00,9.70
2018,04,27,02,01,9.70
2018,04,27,02,02,9.70
2018,04,27,02,03,9.70
2018,04,27,02,04,9.70
2018,04,27,02,05,9.60
2018,04,27,02,06,9.60
2018,04,27,02,07,9.60
2018,04,27,02,08,9.60
2018,04,27,02,09,9.60
2018,04,27,02,10,9.60
2018,04,27,02,11,9.60
2018,04,27,02,12,9.60
2018,04,27,02,13,9.60
2018,04,27,02,14,9.60
2018,04,27,02,15,9.60
2018,04,27,02,16,9.60
2018,04,27,02,17,9.60
2018,04,27,02,18,9.60
2018,04,27,02,19,9.60
2018,04,27,02,20,9.50
2018,04,27,02,21,9.50
2018,04,27,02,22,9.50
2018,04,27,02,23,9.50
2018,04,27,02,24,9.50
2018,04,27,02,25,9.50
2018,04,27,02,26,9.50
2018,04,27,02,27,9.50
2018,04,27,02,28,9.40
2018,04,27,02,29,9.40
2018,04,27,02,30,9.40
2018,04,27,02,31,9.40
2018,04,27,02,32,9.40
2018,04,27,02,33,9.40
2018,04,27,02,34,9.40
2018,04,27,02,35,9.40
2018,04,27,02,36,9.30
2018,04,27,02,37,9.30
2018,04,27,02,38,9.30
2018,04,27,02,39,9.30
2018,04,27,02,40,9.30
2018,04,27,02,41,9.30
2018,04,27,02,42,9.30
2018,04,27,02,43,9.30
2018,04,27,02,44,9.30
2018,04,27,02,45,9.20
2018,04,27,02,46,9.20
2018,04,27,02,47,9.20
2018,04,27,02,48,9.20
2018,04,27,02,49,9.20
2018,04,27,02,50,9.20
2018,04,27,02,51,9.20
2018,04,27,02,52,9.20
2018,04,27,02,53,9.20
2018,04,27,02,54,9.10
2018,04,27,02,55,9.10
2018,04,27,02,56,9.10
2018,04,27,02,57,9.10
2018,04,27,02,58,9.10
2018,04,27,02,59,9.10
2018,04,27,03,00,9.10
2018,04,27,03,01,9.10
2018,04,27,03,02,9.00
2018,04,27,03,03,9.00
2018,04,27,03,04,9.00
2018,04,27,03,05,9.00
2018,04,27,03,06,9.00
2018,04,27,03,07,8.90
2018,04,27,03,08,8.90
2018,04,27,03,09,8.90
2018,04,27,03,10,8.90
2018,04,27,03,11,8.90
2018,04,27,03,12,8.90
2018,04,27,03,13,8.90
2018,04,27,03,14,8.80
2018,04,27,03,15,8.80
2018,04,27,03,16,8.80
2018,04,27,03,17,8.80
2018,04,27,03,18,8.80
2018,04,27,03,19,8.80
2018,04,27,03,20,8.80
2018,04,27,03,21,8.80
2018,04,27,03,22,8.80
2018,04,27,03,23,8.70
2018,04,27,03,24,8.70
2018,04,27,03,25,8.70
2018,04,27,03,26,8.70
2018,04,27,03,27,8.70
2018,04,27,03,28,8.60
2018,04,27,03,29,8.60
2018,04,27,03,30,8.60
2018,04,27,03,31,8.60
2018,04,27,03,32,8.60
2018,04,27,03,33,8.60
2018,04,27,03,34,8.50
2018,04,27,03,35,8.50
2018,04,27,03,36,8.50
2018,04,27,03,37,8.50
2018,04,27,03,38,8.40
2018,04,27,03,39,8.40
2018,04,27,03,40,8.40
2018,04,27,03,41,8.40
2018,04,27,03,42,8.40
2018,04,27,03,43,8.40
2018,04,27,03,44,8.30
2018,04,27,03,45,8.30
2018,04,27,03,46,8.30
2018,04,27,03,47,8.30
2018,04,27,03,48,8.30
2018,04,27,03,49,8.30
2018,04,27,03,50,8.30
2018,04,27,03,51,8.30
2018,04,27,03,52,8.30
2018,04,27,03,53,8.30
2018,04,27,03,54,8.30
2018,04,27,03,55,8.20
2018,04,27,03,56,8.20
2018,04,27,03,57,8.20
2018,04,27,03,58,8.20
2018,04,27,03,59,8.20
2018,04,27,04,00,8.20
2018,04,27,04,01,8.20
2018,04,27,04,02,8.20
2018,04,27,04,03,8.10
2018,04,27,04,04,8.10
2018,04,27,04,05,8.10
2018,04,27,04,06,8.10
2018,04,27,04,07,8.10
2018,04,27,04,08,8.10
2018,04,27,04,09,8.00
2018,04,27,04,10,8.00
2018,04,27,04,11,8.00
2018,04,27,04,12,8.00
2018,04,27,04,13,8.00
2018,04,27,04,14,7.90
2018,04,27,04,15,7.90
2018,04,27,04,16,7.90
2018,04,27,04,17,7.90
2018,04,27,04,18,7.90
2018,04,27,04,19,7.80
2018,04,27,04,20,7.80
2018,04,27,04,21,7.80
2018,04,27,04,22,7.80
2018,04,27,04,23,7.80
2018,04,27,04,24,7.80
2018,04,27,04,25,7.80
2018,04,27,04,26,7.70
2018,04,27,04,27,7.70
2018,04,27,04,28,7.70
2018,04,27,04,29,7.70
2018,04,27,04,30,7.70
2018,04,27,04,31,7.70
2018,04,27,04,32,7.70
2018,04,27,04,33,7.70
2018,04,27,04,34,7.70
2018,04,27,04,35,7.70
2018,04,27,04,36,7.70
2018,04,27,04,37,7.70
2018,04,27,04,38,7.60
2018,04,27,04,39,7.60
2018,04,27,04,40,7.60
2018,04,27,04,41,7.60
2018,04,27,04,42,7.60
2018,04,27,04,43,7.60
2018,04,27,04,44,7.60
2018,04,27,04,45,7.60
2018,04,27,04,46,7.60
2018,04,27,04,47,7.60
2018,04,27,04,48,7.60
2018,04,27,04,49,7.50
2018,04,27,04,50,7.50
2018,04,27,04,51,7.50
2018,04,27,04,52,7.50
2018,04,27,04,53,7.50
2018,04,27,04,54,7.50
2018,04,27,04,55,7.50
2018,04,27,04,56,7.50
2018,04,27,04,57,7.50
2018,04,27,04,58,7.50
2018,04,27,04,59,7.50
2018,04,27,05,00,7.50
2018,04,27,05,01,7.50
2018,04,27,05,02,7.50
2018,04,27,05,03,7.50
2018,04,27,05,04,7.50
2018,04,27,05,05,7.50
2018,04,27,05,06,7.40
2018,04,27,05,07,7.40
2018,04,27,05,08,7.40
2018,04,27,05,09,7.40
2018,04,27,05,10,7.40
2018,04,27,05,11,7.40
2018,04,27,05,12,7.40
2018,04,27,05,13,7.40
2018,04,27,05,14,7.40
2018,04,27,05,15,7.30
2018,04,27,05,16,7.30
2018,04,27,05,17,7.30
2018,04,27,05,18,7.30
2018,04,27,05,19,7.30
2018,04,27,05,20,7.20
2018,04,27,05,21,7.20
2018,04,27,05,22,7.20
2018,04,27,05,23,7.20
2018,04,27,05,24,7.20
2018,04,27,05,25,7.20
2018,04,27,05,26,7.10
2018,04,27,05,27,7.10
2018,04,27,05,28,7.10
2018,04,27,05,29,7.10
2018,04,27,05,30,7.10
2018,04,27,05,31,7.10
2018,04,27,05,32,7.00
2018,04,27,05,33,7.00
2018,04,27,05,34,7.00
2018,04,27,05,35,7.00
2018,04,27,05,36,6.90
2018,04,27,05,37,6.90
2018,04,27,05,38,6.90
2018,04,27,05,39,6.90
2018,04,27,05,40,6.90
2018,04,27,05,41,6.90
2018,04,27,05,42,6.80
2018,04,27,05,43,6.80
2018,04,27,05,44,6.80
2018,04,27,05,45,6.80
2018,04,27,05,46,6.80
2018,04,27,05,47,6.80
2018,04,27,05,48,6.80
2018,04,27,05,49,6.80
2018,04,27,05,50,6.80
2018,04,27,05,51,6.80
2018,04,27,05,52,6.80
2018,04,27,05,53,6.80
2018,04,27,05,54,6.80
2018,04,27,05,55,6.80
2018,04,27,05,56,6.80
2018,04,27,05,57,6.80
2018,04,27,05,58,6.80
2018,04,27,05,59,6.80
2018,04,27,06,00,6.80
2018,04,27,06,01,6.80
2018,04,27,06,02,6.80
2018,04,27,06,03,6.80
2018,04,27,06,04,6.80
2018,04,27,06,05,6.80
2018,04,27,06,06,6.80
2018,04,27,06,07,6.80
2018,04,27,06,08,6.80
2018,04,27,06,09,6.80
2018,04,27,06,10,6.80
2018,04,27,06,11,6.80
2018,04,27,06,12,6.90
2018,04,27,06,13,6.90
2018,04,27,06,14,6.90
2018,04,27,06,15,6.90
2018,04,27,06,16,6.90
2018,04,27,06,17,6.90
2018,04,27,06,18,6.90
2018,04,27,06,19,6.90
2018,04,27,06,20,6.90
2018,04,27,06,21,6.90
2018,04,27,06,22,6.90
2018,04,27,06,23,6.90
2018,04,27,06,24,6.90
2018,04,27,06,25,6.90
2018,04,27,06,26,6.90
2018,04,27,06,27,6.90
2018,04,27,06,28,6.90
2018,04,27,06,29,6.90
2018,04,27,06,30,6.90
2018,04,27,06,31,6.90
2018,04,27,06,32,7.00
2018,04,27,06,33,7.00
2018,04,27,06,34,7.00
2018,04,27,06,35,7.10
2018,04,27,06,36,7.10
2018,04,27,06,37,7.10
2018,04,27,06,38,7.10
2018,04,27,06,39,7.10
2018,04,27,06,40,7.10
2018,04,27,06,41,7.10
2018,04,27,06,42,7.20
2018,04,27,06,43,7.20
2018,04,27,06,44,7.20
2018,04,27,06,45,7.20
2018,04,27,06,46,7.20
2018,04,27,06,47,7.20
2018,04,27,06,48,7.20
2018,04,27,06,49,7.20
2018,04,27,06,50,7.20
2018,04,27,06,51,7.20
2018,04,27,06,52,7.20
2018,04,27,06,53,7.20
2018,04,27,06,54,7.30
2018,04,27,06,55,7.30
2018,04,27,06,56,7.30
2018,04,27,06,57,7.30
2018,04,27,06,58,7.30
2018,04,27,06,59,7.30
2018,04,27,07,00,7.30
2018,04,27,07,01,7.30
2018,04,27,07,02,7.30
2018,04,27,07,03,7.40
2018,04,27,07,04,7.40
2018,04,27,07,05,7.50
2018,04,27,07,06,7.50
2018,04,27,07,07,7.50
2018,04,27,07,08,7.60
2018,04,27,07,09,7.60
2018,04,27,07,10,7.70
2018,04,27,07,11,7.70
2018,04,27,07,12,7.70
2018,04,27,07,13,7.80
2018,04,27,07,14,7.80
2018,04,27,07,15,7.80
2018,04,27,07,16,7.80
2018,04,27,07,17,7.90
2018,04,27,07,18,7.90
2018,04,27,07,19,7.90
2018,04,27,07,20,8.00
2018,04,27,07,21,8.00
2018,04,27,07,22,8.00
2018,04,27,07,23,8.00
2018,04,27,07,24,8.10
2018,04,27,07,25,8.10
2018,04,27,07,26,8.10
2018,04,27,07,27,8.20
2018,04,27,07,28,8.30
2018,04,27,07,29,8.30
2018,04,27,07,30,8.40
2018,04,27,07,31,8.40
2018,04,27,07,32,8.50
2018,04,27,07,33,8.60
2018,04,27,07,34,8.60
2018,04,27,07,35,8.70
2018,04,27,07,36,8.70
2018,04,27,07,37,8.80
2018,04,27,07,38,8.90
2018,04,27,07,39,9.00
2018,04,27,07,40,9.10
2018,04,27,07,41,9.20
2018,04,27,07,42,9.30
2018,04,27,07,43,9.40
2018,04,27,07,44,9.40
2018,04,27,07,45,9.50
2018,04,27,07,46,9.60
2018,04,27,07,47,9.60
2018,04,27,07,48,9.70
2018,04,27,07,49,9.80
2018,04,27,07,50,9.80
2018,04,27,07,51,9.80
2018,04,27,07,52,9.90
2018,04,27,07,53,10.00
2018,04,27,07,54,10.10
2018,04,27,07,55,10.10
2018,04,27,07,56,10.20
2018,04,27,07,57,10.20
2018,04,27,07,58,10.30
2018,04,27,07,59,10.40
2018,04,27,08,00,10.50
2018,04,27,08,01,10.50
2018,04,27,08,02,10.60
2018,04,27,08,03,10.70
2018,04,27,08,04,10.80
2018,04,27,08,05,10.80
2018,04,27,08,06,10.90
2018,04,27,08,07,11.00
2018,04,27,08,08,11.10
2018,04,27,08,09,11.20
2018,04,27,08,10,11.30
2018,04,27,08,11,11.40
2018,04,27,08,12,11.50
2018,04,27,08,13,11.70
2018,04,27,08,14,11.80
2018,04,27,08,15,11.90
2018,04,27,08,16,12.10
2018,04,27,08,17,12.20
2018,04,27,08,18,12.30
2018,04,27,08,19,12.40
2018,04,27,08,20,12.50
2018,04,27,08,21,12.70
2018,04,27,08,22,12.80
2018,04,27,08,23,12.80
2018,04,27,08,24,12.90
2018,04,27,08,25,13.00
2018,04,27,08,26,13.10
2018,04,27,08,27,13.10
2018,04,27,08,28,13.20
2018,04,27,08,29,13.20
2018,04,27,08,30,13.30
2018,04,27,08,31,13.30
2018,04,27,08,32,13.40
2018,04,27,08,33,13.40
2018,04,27,08,34,13.50
2018,04,27,08,35,13.50
2018,04,27,08,36,13.50
2018,04,27,08,37,13.50
2018,04,27,08,38,13.50
2018,04,27,08,39,13.50
2018,04,27,08,40,13.50
2018,04,27,08,41,13.50
2018,04,27,08,42,13.60
2018,04,27,08,43,13.60
2018,04,27,08,44,13.70
2018,04,27,08,45,13.80
2018,04,27,08,46,13.90
2018,04,27,08,47,13.90
2018,04,27,08,48,14.00
2018,04,27,08,49,14.10
2018,04,27,08,50,14.20
2018,04,27,08,51,14.30
2018,04,27,08,52,14.30
2018,04,27,08,53,14.40
2018,04,27,08,54,14.50
2018,04,27,08,55,14.60
2018,04,27,08,56,14.60
2018,04,27,08,57,14.70
2018,04,27,08,58,14.70
2018,04,27,08,59,14.80
2018,04,27,09,00,14.80
2018,04,27,09,01,14.90
2018,04,27,09,02,15.00
2018,04,27,09,03,15.00
2018,04,27,09,04,15.10
2018,04,27,09,05,15.20
2018,04,27,09,06,15.20
2018,04,27,09,07,15.30
2018,04,27,09,08,15.40
2018,04,27,09,09,15.50
2018,04,27,09,10,15.50
2018,04,27,09,11,15.60
2018,04,27,09,12,15.60
2018,04,27,09,13,15.70
2018,04,27,09,14,15.80
2018,04,27,09,15,15.80
2018,04,27,09,16,15.90
2018,04,27,09,17,15.90
2018,04,27,09,18,15.90
2018,04,27,09,19,15.90
2018,04,27,09,20,15.90
2018,04,27,09,21,16.00
2018,04,27,09,22,16.00
2018,04,27,09,23,16.00
2018,04,27,09,24,16.10
2018,04,27,09,25,16.10
2018,04,27,09,26,16.10
2018,04,27,09,27,16.00
2018,04,27,09,28,15.90
2018,04,27,09,29,15.80
2018,04,27,09,30,15.70
2018,04,27,09,31,15.60
2018,04,27,09,32,15.40
2018,04,27,09,33,15.30
2018,04,27,09,34,15.20
2018,04,27,09,35,15.10
2018,04,27,09,36,15.10
2018,04,27,09,37,15.00
2018,04,27,09,38,15.00
2018,04,27,09,39,14.90
2018,04,27,09,40,14.90
2018,04,27,09,41,14.80
2018,04,27,09,42,14.70
2018,04,27,09,43,14.60
2018,04,27,09,44,14.60
2018,04,27,09,45,14.60
2018,04,27,09,46,14.60
2018,04,27,09,47,14.60
2018,04,27,09,48,14.60
2018,04,27,09,49,14.60
2018,04,27,09,50,14.60
2018,04,27,09,51,14.60
2018,04,27,09,52,14.60
2018,04,27,09,53,14.60
2018,04,27,09,54,14.60
2018,04,27,09,55,14.60
2018,04,27,09,56,14.60
2018,04,27,09,57,14.70
2018,04,27,09,58,14.70
2018,04,27,09,59,14.80
2018,04,27,10,00,14.90
2018,04,27,10,01,14.90
2018,04,27,10,02,14.90
2018,04,27,10,03,14.90
2018,04,27,10,04,14.90
2018,04,27,10,05,14.90
2018,04,27,10,06,14.90
2018,04,27,10,07,14.90
2018,04,27,10,08,15.00
2018,04,27,10,09,15.00
2018,04,27,10,10,15.00
2018,04,27,10,11,15.00
2018,04,27,10,12,15.10
2018,04,27,10,13,15.10
2018,04,27,10,14,15.10
2018,04,27,10,15,15.10
2018,04,27,10,16,15.10
2018,04,27,10,17,15.10
2018,04,27,10,18,15.10
2018,04,27,10,19,15.10
2018,04,27,10,20,15.10
2018,04,27,10,21,15.10
2018,04,27,10,22,15.00
2018,04,27,10,23,15.00
2018,04,27,10,24,15.10
2018,04,27,10,25,15.00
2018,04,27,10,26,15.00
2018,04,27,10,27,14.90
2018,04,27,10,28,14.90
2018,04,27,10,29,14.90
2018,04,27,10,30,14.90
2018,04,27,10,31,14.90
2018,04,27,10,32,14.90
2018,04,27,10,33,14.90
2018,04,27,10,34,15.00
2018,04,27,10,35,15.00
2018,04,27,10,36,15.10
2018,04,27,10,37,15.20
2018,04,27,10,38,15.30
2018,04,27,10,39,15.40
2018,04,27,10,40,15.50
2018,04,27,10,41,15.60
2018,04,27,10,42,15.70
2018,04,27,10,43,15.70
2018,04,27,10,44,15.60
2018,04,27,10,45,15.60
2018,04,27,10,46,15.60
2018,04,27,10,47,15.60
2018,04,27,10,48,15.60
2018,04,27,10,49,15.60
2018,04,27,10,50,15.60
2018,04,27,10,51,15.60
2018,04,27,10,52,15.60
2018,04,27,10,53,15.60
2018,04,27,10,54,15.70
2018,04,27,10,55,15.70
2018,04,27,10,56,15.80
2018,04,27,10,57,15.90
2018,04,27,10,58,16.00
2018,04,27,10,59,16.10
2018,04,27,11,00,16.20
2018,04,27,11,01,16.30
2018,04,27,11,02,16.40
2018,04,27,11,03,16.40
2018,04,27,11,04,16.40
2018,04,27,11,05,16.50
2018,04,27,11,06,16.50
2018,04,27,11,07,16.60
2018,04,27,11,08,16.70
2018,04,27,11,09,16.70
2018,04,27,11,10,16.80
2018,04,27,11,11,16.80
2018,04,27,11,12,16.80
2018,04,27,11,13,16.70
2018,04,27,11,14,16.70
2018,04,27,11,15,16.50
2018,04,27,11,16,16.50
2018,04,27,11,17,16.40
2018,04,27,11,18,16.30
2018,04,27,11,19,16.20
2018,04,27,11,20,16.00
2018,04,27,11,21,15.90
2018,04,27,11,22,15.80
2018,04,27,11,23,15.80
2018,04,27,11,24,15.80
2018,04,27,11,25,15.70
2018,04,27,11,26,15.70
2018,04,27,11,27,15.80
2018,04,27,11,28,15.80
2018,04,27,11,29,15.80
2018,04,27,11,30,15.90
2018,04,27,11,31,16.00
2018,04,27,11,32,16.00
2018,04,27,11,33,16.00
2018,04,27,11,34,15.90
2018,04,27,11,35,15.80
2018,04,27,11,36,15.70
2018,04,27,11,37,15.60
2018,04,27,11,38,15.60
2018,04,27,11,39,15.60
2018,04,27,11,40,15.60
2018,04,27,11,41,15.70
2018,04,27,11,42,15.80
2018,04,27,11,43,15.90
2018,04,27,11,44,15.90
2018,04,27,11,45,16.00
2018,04,27,11,46,16.10
2018,04,27,11,47,16.20
2018,04,27,11,48,16.30
2018,04,27,11,49,16.30
2018,04,27,11,50,16.40
2018,04,27,11,51,16.40
2018,04,27,11,52,16.40
2018,04,27,11,53,16.30
2018,04,27,11,54,16.30
2018,04,27,11,55,16.20
2018,04,27,11,56,16.20
2018,04,27,11,57,16.30
2018,04,27,11,58,16.40
2018,04,27,11,59,16.50
2018,04,27,12,00,16.60
2018,04,27,12,01,16.70
2018,04,27,12,02,16.80
2018,04,27,12,03,16.90
2018,04,27,12,04,16.90
2018,04,27,12,05,17.00
2018,04,27,12,06,17.10
2018,04,27,12,07,17.20
2018,04,27,12,08,17.30
2018,04,27,12,09,17.30
2018,04,27,12,10,17.40
2018,04,27,12,11,17.40
2018,04,27,12,12,17.40
2018,04,27,12,13,17.40
2018,04,27,12,14,17.50
2018,04,27,12,15,17.50
2018,04,27,12,16,17.50
2018,04,27,12,17,17.60
2018,04,27,12,18,17.60
2018,04,27,12,19,17.70
2018,04,27,12,20,17.70
2018,04,27,12,21,17.70
2018,04,27,12,22,17.70
2018,04,27,12,23,17.80
2018,04,27,12,24,17.80
2018,04,27,12,25,17.90
2018,04,27,12,26,17.90
2018,04,27,12,27,18.00
2018,04,27,12,28,18.10
2018,04,27,12,29,18.20
2018,04,27,12,30,18.20
2018,04,27,12,31,18.20
2018,04,27,12,32,18.30
2018,04,27,12,33,18.30
2018,04,27,12,34,18.40
2018,04,27,12,35,18.40
2018,04,27,12,36,18.50
2018,04,27,12,37,18.50
2018,04,27,12,38,18.60
2018,04,27,12,39,18.60
2018,04,27,12,40,18.70
2018,04,27,12,41,18.80
2018,04,27,12,42,18.80
2018,04,27,12,43,18.90
2018,04,27,12,44,19.00
2018,04,27,12,45,19.10
2018,04,27,12,46,19.10
2018,04,27,12,47,19.20
2018,04,27,12,48,19.30
2018,04,27,12,49,19.30
2018,04,27,12,50,19.40
2018,04,27,12,51,19.50
2018,04,27,12,52,19.50
2018,04,27,12,53,19.50
2018,04,27,12,54,19.50
2018,04,27,12,55,19.50
2018,04,27,12,56,19.50
2018,04,27,12,57,19.50
2018,04,27,12,58,19.50
2018,04,27,12,59,19.50
2018,04,27,13,00,19.50
2018,04,27,13,01,19.60
2018,04,27,13,02,19.60
2018,04,27,13,03,19.50
2018,04,27,13,04,19.50
2018,04,27,13,05,19.40
2018,04,27,13,06,19.40
2018,04,27,13,07,19.40
2018,04,27,13,08,19.50
2018,04,27,13,09,19.50
2018,04,27,13,10,19.60
2018,04,27,13,11,19.60
2018,04,27,13,12,19.70
2018,04,27,13,13,19.70
2018,04,27,13,14,19.70
2018,04,27,13,15,19.70
2018,04,27,13,16,19.70
2018,04,27,13,17,19.80
2018,04,27,13,18,19.80
2018,04,27,13,19,19.90
2018,04,27,13,20,19.90
2018,04,27,13,21,19.90
2018,04,27,13,22,19.90
2018,04,27,13,23,19.90
2018,04,27,13,24,19.90
2018,04,27,13,25,19.90
2018,04,27,13,26,19.90
2018,04,27,13,27,19.90
2018,04,27,13,28,19.90
2018,04,27,13,29,19.90
2018,04,27,13,30,19.80
2018,04,27,13,31,19.80
2018,04,27,13,32,19.80
2018,04,27,13,33,19.80
2018,04,27,13,34,19.70
2018,04,27,13,35,19.70
2018,04,27,13,36,19.70
2018,04,27,13,37,19.70
2018,04,27,13,38,19.80
2018,04,27,13,39,19.90
2018,04,27,13,40,19.90
2018,04,27,13,41,20.00
2018,04,27,13,42,20.10
2018,04,27,13,43,20.10
2018,04,27,13,44,20.20
2018,04,27,13,45,20.20
2018,04,27,13,46,20.20
2018,04,27,13,47,20.20
2018,04,27,13,48,20.30
2018,04,27,13,49,20.30
2018,04,27,13,50,20.10
2018,04,27,13,51,20.00
2018,04,27,13,52,19.80
2018,04,27,13,53,19.70
2018,04,27,13,54,19.60
2018,04,27,13,55,19.50
2018,04,27,13,56,19.50
2018,04,27,13,57,19.60
2018,04,27,13,58,19.60
2018,04,27,13,59,19.70
2018,04,27,14,00,19.80
2018,04,27,14,01,19.90
2018,04,27,14,02,19.90
2018,04,27,14,03,19.80
2018,04,27,14,04,19.70
2018,04,27,14,05,19.60
2018,04,27,14,06,19.50
2018,04,27,14,07,19.50
2018,04,27,14,08,19.50
2018,04,27,14,09,19.50
2018,04,27,14,10,19.50
2018,04,27,14,11,19.60
2018,04,27,14,12,19.60
2018,04,27,14,13,19.70
2018,04,27,14,14,19.70
2018,04,27,14,15,19.70
2018,04,27,14,16,19.70
2018,04,27,14,17,19.70
2018,04,27,14,18,19.70
2018,04,27,14,19,19.70
2018,04,27,14,20,19.70
2018,04,27,14,21,19.70
2018,04,27,14,22,19.80
2018,04,27,14,23,19.80
2018,04,27,14,24,19.90
2018,04,27,14,25,19.90
2018,04,27,14,26,20.00
2018,04,27,14,27,20.00
2018,04,27,14,28,20.10
2018,04,27,14,29,20.10
2018,04,27,14,30,20.20
2018,04,27,14,31,20.20
2018,04,27,14,32,20.20
2018,04,27,14,33,20.20
2018,04,27,14,34,20.30
2018,04,27,14,35,20.20
2018,04,27,14,36,20.20
2018,04,27,14,37,20.20
2018,04,27,14,38,20.20
2018,04,27,14,39,20.30
2018,04,27,14,40,20.30
2018,04,27,14,41,20.30
2018,04,27,14,42,20.40
2018,04,27,14,43,20.40
2018,04,27,14,44,20.40
2018,04,27,14,45,20.40
2018,04,27,14,46,20.30
2018,04,27,14,47,20.30
2018,04,27,14,48,20.20
2018,04,27,14,49,20.30
2018,04,27,14,50,20.30
2018,04,27,14,51,20.30
2018,04,27,14,52,20.40
2018,04,27,14,53,20.30
2018,04,27,14,54,20.40
2018,04,27,14,55,20.40
2018,04,27,14,56,20.40
2018,04,27,14,57,20.40
2018,04,27,14,58,20.50
2018,04,27,14,59,20.50
2018,04,27,15,00,20.50
2018,04,27,15,01,20.60
2018,04,27,15,02,20.50
2018,04,27,15,03,20.50
2018,04,27,15,04,20.50
2018,04,27,15,05,20.40
2018,04,27,15,06,20.40
2018,04,27,15,07,20.40
2018,04,27,15,08,20.40
2018,04,27,15,09,20.40
2018,04,27,15,10,20.30
2018,04,27,15,11,20.30
2018,04,27,15,12,20.20
2018,04,27,15,13,20.20
2018,04,27,15,14,20.10
2018,04,27,15,15,20.10
2018,04,27,15,16,20.00
2018,04,27,15,17,20.00
2018,04,27,15,18,20.00
2018,04,27,15,19,20.00
2018,04,27,15,20,20.00
2018,04,27,15,21,20.10
2018,04,27,15,22,20.20
2018,04,27,15,23,20.20
2018,04,27,15,24,20.30
2018,04,27,15,25,20.30
2018,04,27,15,26,20.30
2018,04,27,15,27,20.30
2018,04,27,15,28,20.30
2018,04,27,15,29,20.40
2018,04,27,15,30,20.40
2018,04,27,15,31,20.40
2018,04,27,15,32,20.30
2018,04,27,15,33,20.20
2018,04,27,15,34,20.20
2018,04,27,15,35,20.10
2018,04,27,15,36,20.10
2018,04,27,15,37,20.20
2018,04,27,15,38,20.30
2018,04,27,15,39,20.30
2018,04,27,15,40,20.30
2018,04,27,15,41,20.40
2018,04,27,15,42,20.40
2018,04,27,15,43,20.40
2018,04,27,15,44,20.30
2018,04,27,15,45,20.30
2018,04,27,15,46,20.20
2018,04,27,15,47,20.10
2018,04,27,15,48,20.10
2018,04,27,15,49,20.10
2018,04,27,15,50,20.10
2018,04,27,15,51,20.10
2018,04,27,15,52,20.20
2018,04,27,15,53,20.30
2018,04,27,15,54,20.40
2018,04,27,15,55,20.50
2018,04,27,15,56,20.60
2018,04,27,15,57,20.60
2018,04,27,15,58,20.60
2018,04,27,15,59,20.60
2018,04,27,16,00,20.50
2018,04,27,16,01,20.40
2018,04,27,16,02,20.30
2018,04,27,16,03,20.20
2018,04,27,16,04,20.00
2018,04,27,16,05,19.90
2018,04,27,16,06,19.90
2018,04,27,16,07,19.80
2018,04,27,16,08,19.70
2018,04,27,16,09,19.60
2018,04,27,16,10,19.50
2018,04,27,16,11,19.40
2018,04,27,16,12,19.50
2018,04,27,16,13,19.50
2018,04,27,16,14,19.50
2018,04,27,16,15,19.60
2018,04,27,16,16,19.60
2018,04,27,16,17,19.50
2018,04,27,16,18,19.50
2018,04,27,16,19,19.40
2018,04,27,16,20,19.30
2018,04,27,16,21,19.20
2018,04,27,16,22,19.20
2018,04,27,16,23,19.10
2018,04,27,16,24,19.10
2018,04,27,16,25,19.10
2018,04,27,16,26,19.10
2018,04,27,16,27,19.00
2018,04,27,16,28,18.90
2018,04,27,16,29,18.90
2018,04,27,16,30,18.90
2018,04,27,16,31,19.00
2018,04,27,16,32,19.10
2018,04,27,16,33,19.10
2018,04,27,16,34,19.10
2018,04,27,16,35,19.20
2018,04,27,16,36,19.20
2018,04,27,16,37,19.20
2018,04,27,16,38,19.20
2018,04,27,16,39,19.20
2018,04,27,16,40,19.30
2018,04,27,16,41,19.30
2018,04,27,16,42,19.40
2018,04,27,16,43,19.50
2018,04,27,16,44,19.60
2018,04,27,16,45,19.70
2018,04,27,16,46,19.70
2018,04,27,16,47,19.70
2018,04,27,16,48,19.60
2018,04,27,16,49,19.60
2018,04,27,16,50,19.60
2018,04,27,16,51,19.70
2018,04,27,16,52,19.70
2018,04,27,16,53,19.70
2018,04,27,16,54,19.60
2018,04,27,16,55,19.50
2018,04,27,16,56,19.50
2018,04,27,16,57,19.50
2018,04,27,16,58,19.40
2018,04,27,16,59,19.30
2018,04,27,17,00,19.20
2018,04,27,17,01,19.20
2018,04,27,17,02,19.10
2018,04,27,17,03,19.00
2018,04,27,17,04,18.90
2018,04,27,17,05,18.90
2018,04,27,17,06,18.80
2018,04,27,17,07,18.80
2018,04,27,17,08,18.80
2018,04,27,17,09,18.80
2018,04,27,17,10,18.80
2018,04,27,17,11,18.80
2018,04,27,17,12,18.80
2018,04,27,17,13,18.70
2018,04,27,17,14,18.70
2018,04,27,17,15,18.70
2018,04,27,17,16,18.60
2018,04,27,17,17,18.60
2018,04,27,17,18,18.60
2018,04,27,17,19,18.50
2018,04,27,17,20,18.50
2018,04,27,17,21,18.50
2018,04,27,17,22,18.50
2018,04,27,17,23,18.40
2018,04,27,17,24,18.40
2018,04,27,17,25,18.40
2018,04,27,17,26,18.30
2018,04,27,17,27,18.20
2018,04,27,17,28,18.20
2018,04,27,17,29,18.20
2018,04,27,17,30,18.10
2018,04,27,17,31,18.10
2018,04,27,17,32,18.10
2018,04,27,17,33,18.00
2018,04,27,17,34,18.00
2018,04,27,17,35,17.90
2018,04,27,17,36,17.90